Time,TemperatureF,DewpointF,PressureIn,WindDirection,WindDirectionDegrees,WindSpeedMPH,WindSpeedGustMPH,Humidity,HourlyPrecipIn,Conditions,Clouds,dailyrainin,SoftwareType,DateUTC
2013-04-17 00:08:00,-999.0,-99.9,30.27,North,-999,-999.0,-999.0,-999,-99.99,,,0.00,weatherlink.com 1.10,2013-04-17 08:08:00,
2013-04-17 00:23:00,-999.0,-99.9,30.27,North,-999,-999.0,-999.0,-999,-99.99,,,0.00,weatherlink.com 1.10,2013-04-17 08:23:00,
2013-04-17 00:38:00,-999.0,-99.9,30.27,North,-999,-999.0,-999.0,-999,-99.99,,,0.00,weatherlink.com 1.10,2013-04-17 08:38:00,
2013-04-17 00:53:00,-999.0,-99.9,30.27,North,-999,-999.0,-999.0,-999,-99.99,,,0.00,weatherlink.com 1.10,2013-04-17 08:53:00,
2013-04-17 01:08:00,-999.0,-99.9,30.27,North,-999,-999.0,-999.0,-999,-99.99,,,0.00,weatherlink.com 1.10,2013-04-17 09:08:00,
2013-04-17 01:23:00,-999.0,-99.9,30.27,North,-999,-999.0,-999.0,-999,-99.99,,,0.00,weatherlink.com 1.10,2013-04-17 09:23:00,
2013-04-17 01:38:00,-999.0,-99.9,30.27,North,-999,-999.0,-999.0,-999,-99.99,,,0.00,weatherlink.com 1.10,2013-04-17 09:38:00,
2013-04-17 01:53:00,-999.0,-99.9,30.27,North,-999,-999.0,-999.0,-999,-99.99,,,0.00,weatherlink.com 1.10,2013-04-17 09:53:00,
2013-04-17 02:09:00,-999.0,-99.9,30.28,North,-999,-999.0,-999.0,-999,-99.99,,,0.00,weatherlink.com 1.10,2013-04-17 10:09:00,
2013-04-17 02:24:00,-999.0,-99.9,30.28,North,-999,-999.0,-999.0,-999,-99.99,,,0.00,weatherlink.com 1.10,2013-04-17 10:24:00,
2013-04-17 02:39:00,-999.0,-99.9,30.28,North,-999,-999.0,-999.0,-999,-99.99,,,0.00,weatherlink.com 1.10,2013-04-17 10:39:00,
2013-04-17 02:54:00,-999.0,-99.9,30.28,North,-999,-999.0,-999.0,-999,-99.99,,,0.00,weatherlink.com 1.10,2013-04-17 10:54:00,
2013-04-17 03:09:00,-999.0,-99.9,30.28,North,-999,-999.0,-999.0,-999,-99.99,,,0.00,weatherlink.com 1.10,2013-04-17 11:09:00,
2013-04-17 03:24:00,-999.0,-99.9,30.29,North,-999,-999.0,-999.0,-999,-99.99,,,0.00,weatherlink.com 1.10,2013-04-17 11:24:00,
2013-04-17 03:39:00,-999.0,-99.9,30.29,North,-999,-999.0,-999.0,-999,-99.99,,,0.00,weatherlink.com 1.10,2013-04-17 11:39:00,
2013-04-17 03:54:00,-999.0,-99.9,30.29,North,-999,-999.0,-999.0,-999,-99.99,,,0.00,weatherlink.com 1.10,2013-04-17 11:54:00,
2013-04-17 04:09:00,-999.0,-99.9,30.28,North,-999,-999.0,-999.0,-999,-99.99,,,0.00,weatherlink.com 1.10,2013-04-17 12:09:00,
2013-04-17 04:24:00,-999.0,-99.9,30.28,North,-999,-999.0,-999.0,-999,-99.99,,,0.00,weatherlink.com 1.10,2013-04-17 12:24:00,
2013-04-17 04:39:00,-999.0,-99.9,30.28,North,-999,-999.0,-999.0,-999,-99.99,,,0.00,weatherlink.com 1.10,2013-04-17 12:39:00,
2013-04-17 04:54:00,-999.0,-99.9,30.28,North,-999,-999.0,-999.0,-999,-99.99,,,0.00,weatherlink.com 1.10,2013-04-17 12:54:00,
2013-04-17 05:09:00,-999.0,-99.9,30.28,North,-999,-999.0,-999.0,-999,-99.99,,,0.00,weatherlink.com 1.10,2013-04-17 13:09:00,
2013-04-17 05:24:00,-999.0,-99.9,30.28,North,-999,-999.0,-999.0,-999,-99.99,,,0.00,weatherlink.com 1.10,2013-04-17 13:24:00,
2013-04-17 05:40:00,-999.0,-99.9,30.28,North,-999,-999.0,-999.0,-999,-99.99,,,0.00,weatherlink.com 1.10,2013-04-17 13:40:00,
2013-04-17 05:55:00,-999.0,-99.9,30.28,North,-999,-999.0,-999.0,-999,-99.99,,,0.00,weatherlink.com 1.10,2013-04-17 13:55:00,
2013-04-17 06:10:00,-999.0,-99.9,30.29,North,-999,-999.0,-999.0,-999,-99.99,,,0.00,weatherlink.com 1.10,2013-04-17 14:10:00,
2013-04-17 06:25:00,-999.0,-99.9,30.29,North,-999,-999.0,-999.0,-999,-99.99,,,0.00,weatherlink.com 1.10,2013-04-17 14:25:00,
2013-04-17 06:40:00,-999.0,-99.9,30.29,North,-999,-999.0,-999.0,-999,-99.99,,,0.00,weatherlink.com 1.10,2013-04-17 14:40:00,
2013-04-17 06:55:00,-999.0,-99.9,30.29,North,-999,-999.0,-999.0,-999,-99.99,,,0.00,weatherlink.com 1.10,2013-04-17 14:55:00,
2013-04-17 07:10:00,-999.0,-99.9,30.28,North,-999,-999.0,-999.0,-999,-99.99,,,0.00,weatherlink.com 1.10,2013-04-17 15:10:00,
2013-04-17 07:25:00,-999.0,-99.9,30.29,North,-999,-999.0,-999.0,-999,-99.99,,,0.00,weatherlink.com 1.10,2013-04-17 15:25:00,
2013-04-17 07:40:00,-999.0,-99.9,30.29,North,-999,-999.0,-999.0,-999,-99.99,,,0.00,weatherlink.com 1.10,2013-04-17 15:40:00,
2013-04-17 07:55:00,-999.0,-99.9,30.29,North,-999,-999.0,-999.0,-999,-99.99,,,0.00,weatherlink.com 1.10,2013-04-17 15:55:00,
2013-04-17 08:10:00,-999.0,-99.9,30.23,North,-999,-999.0,-999.0,-999,-99.99,,,0.00,weatherlink.com 1.10,2013-04-17 16:10:00,
2013-04-17 08:40:00,-999.0,-99.9,30.24,North,-999,-999.0,-999.0,-999,-99.99,,,0.00,weatherlink.com 1.10,2013-04-17 16:40:00,
2013-04-17 08:56:00,-999.0,-99.9,30.24,North,-999,-999.0,-999.0,-999,-99.99,,,0.00,weatherlink.com 1.10,2013-04-17 16:56:00,
2013-04-17 09:11:00,-999.0,-99.9,30.24,North,-999,-999.0,-999.0,-999,-99.99,,,0.00,weatherlink.com 1.10,2013-04-17 17:11:00,
2013-04-17 09:26:00,-999.0,-99.9,30.25,North,-999,-999.0,-999.0,-999,-99.99,,,0.00,weatherlink.com 1.10,2013-04-17 17:26:00,
2013-04-17 09:41:00,-999.0,-99.9,30.25,North,-999,-999.0,-999.0,-999,-99.99,,,0.00,weatherlink.com 1.10,2013-04-17 17:41:00,
2013-04-17 10:11:00,-999.0,-99.9,30.25,North,-999,-999.0,-999.0,-999,-99.99,,,0.00,weatherlink.com 1.10,2013-04-17 18:11:00,
2013-04-17 10:26:00,-999.0,-99.9,30.24,North,-999,-999.0,-999.0,-999,-99.99,,,0.00,weatherlink.com 1.10,2013-04-17 18:26:00,
2013-04-17 10:41:00,-999.0,-99.9,30.25,North,-999,-999.0,-999.0,-999,-99.99,,,0.00,weatherlink.com 1.10,2013-04-17 18:41:00,
2013-04-17 10:56:00,-999.0,-99.9,30.25,North,-999,-999.0,-999.0,-999,-99.99,,,0.00,weatherlink.com 1.10,2013-04-17 18:56:00,
2013-04-17 11:11:00,-999.0,-99.9,30.25,North,-999,-999.0,-999.0,-999,-99.99,,,0.00,weatherlink.com 1.10,2013-04-17 19:11:00,
2013-04-17 11:26:00,-999.0,-99.9,30.25,North,-999,-999.0,-999.0,-999,-99.99,,,0.00,weatherlink.com 1.10,2013-04-17 19:26:00,
2013-04-17 11:41:00,-999.0,-99.9,30.25,North,-999,-999.0,-999.0,-999,-99.99,,,0.00,weatherlink.com 1.10,2013-04-17 19:41:00,
2013-04-17 11:56:00,-999.0,-99.9,30.26,North,-999,-999.0,-999.0,-999,-99.99,,,0.00,weatherlink.com 1.10,2013-04-17 19:56:00,
2013-04-17 12:12:00,-999.0,-99.9,30.25,North,-999,-999.0,-999.0,-999,-99.99,,,0.00,weatherlink.com 1.10,2013-04-17 20:12:00,
2013-04-17 12:27:00,-999.0,-99.9,30.25,North,-999,-999.0,-999.0,-999,-99.99,,,0.00,weatherlink.com 1.10,2013-04-17 20:27:00,
2013-04-17 12:42:00,-999.0,-99.9,30.26,North,-999,-999.0,-999.0,-999,-99.99,,,0.00,weatherlink.com 1.10,2013-04-17 20:42:00,
2013-04-17 12:57:00,28.3,13.0,30.32,North,-999,0.0,-999.0,52,-99.99,,,0.00,weatherlink.com 1.10,2013-04-17 20:57:00,
2013-04-17 13:12:00,28.4,12.0,30.32,North,-999,0.0,-999.0,51,-99.99,,,0.00,weatherlink.com 1.10,2013-04-17 21:12:00,
2013-04-17 13:27:00,28.7,11.0,30.32,North,-999,0.0,-999.0,48,-99.99,,,0.00,weatherlink.com 1.10,2013-04-17 21:27:00,
2013-04-17 13:42:00,28.2,11.0,30.33,North,-999,0.0,-999.0,49,-99.99,,,0.00,weatherlink.com 1.10,2013-04-17 21:42:00,
2013-04-17 13:57:00,28.1,11.0,30.34,North,-999,0.0,-999.0,49,-99.99,,,0.00,weatherlink.com 1.10,2013-04-17 21:57:00,
2013-04-17 14:12:00,28.7,11.0,30.34,North,-999,0.0,-999.0,48,-99.99,,,0.00,weatherlink.com 1.10,2013-04-17 22:12:00,
2013-04-17 14:27:00,28.7,10.0,30.34,North,-999,0.0,-999.0,46,-99.99,,,0.00,weatherlink.com 1.10,2013-04-17 22:27:00,
2013-04-17 14:42:00,28.6,11.0,30.34,North,-999,0.0,-999.0,48,-99.99,,,0.00,weatherlink.com 1.10,2013-04-17 22:42:00,
2013-04-17 14:57:00,29.4,11.0,30.34,North,-999,0.0,-999.0,46,-99.99,,,0.00,weatherlink.com 1.10,2013-04-17 22:57:00,
2013-04-17 15:12:00,28.4,11.0,30.35,North,-999,0.0,-999.0,48,-99.99,,,0.00,weatherlink.com 1.10,2013-04-17 23:12:00,
2013-04-17 15:27:00,28.5,10.0,30.35,North,-999,0.0,-999.0,47,-99.99,,,0.00,weatherlink.com 1.10,2013-04-17 23:27:00,
2013-04-17 15:42:00,27.8,10.0,30.35,North,-999,0.0,-999.0,47,-99.99,,,0.00,weatherlink.com 1.10,2013-04-17 23:42:00,
2013-04-17 15:57:00,27.8,10.0,30.36,North,-999,0.0,-999.0,48,-99.99,,,0.00,weatherlink.com 1.10,2013-04-17 23:57:00,
2013-04-17 16:12:00,27.6,10.0,30.36,North,-999,0.0,-999.0,48,-99.99,,,0.00,weatherlink.com 1.10,2013-04-18 00:12:00,
2013-04-17 16:27:00,27.4,11.0,30.36,North,-999,0.0,-999.0,50,-99.99,,,0.00,weatherlink.com 1.10,2013-04-18 00:27:00,
2013-04-17 16:43:00,27.4,9.0,30.37,North,-999,0.0,-999.0,47,-99.99,,,0.00,weatherlink.com 1.10,2013-04-18 00:43:00,
2013-04-17 16:57:00,27.1,10.0,30.37,North,-999,0.0,-999.0,48,-99.99,,,0.00,weatherlink.com 1.10,2013-04-18 00:57:00,
2013-04-17 17:12:00,27.1,10.0,30.37,North,360,0.0,-999.0,49,-99.99,,,0.00,weatherlink.com 1.10,2013-04-18 01:12:00,
2013-04-17 17:27:00,27.0,10.0,30.37,North,360,0.0,-999.0,49,-99.99,,,0.00,weatherlink.com 1.10,2013-04-18 01:27:00,
2013-04-17 17:42:00,26.6,11.0,30.37,North,-999,0.0,-999.0,51,-99.99,,,0.00,weatherlink.com 1.10,2013-04-18 01:42:00,
2013-04-17 17:57:00,27.2,11.0,30.38,North,360,0.0,-999.0,50,-99.99,,,0.00,weatherlink.com 1.10,2013-04-18 01:57:00,
2013-04-17 18:12:00,26.8,10.0,30.38,North,-999,0.0,-999.0,49,-99.99,,,0.00,weatherlink.com 1.10,2013-04-18 02:12:00,
2013-04-17 18:28:00,26.4,11.0,30.38,North,-999,0.0,-999.0,53,-99.99,,,0.00,weatherlink.com 1.10,2013-04-18 02:28:00,
2013-04-17 18:43:00,27.0,11.0,30.38,North,-999,0.0,-999.0,51,-99.99,,,0.00,weatherlink.com 1.10,2013-04-18 02:43:00,
2013-04-17 18:58:00,26.2,11.0,30.39,North,-999,0.0,-999.0,54,-99.99,,,0.00,weatherlink.com 1.10,2013-04-18 02:58:00,
2013-04-17 19:13:00,26.5,11.0,30.39,North,-999,0.0,-999.0,52,-99.99,,,0.00,weatherlink.com 1.10,2013-04-18 03:13:00,
2013-04-17 19:29:00,26.9,11.0,30.39,North,360,0.0,-999.0,52,-99.99,,,0.00,weatherlink.com 1.10,2013-04-18 03:29:00,
2013-04-17 19:43:00,26.8,11.0,30.39,North,360,0.0,-999.0,52,-99.99,,,0.00,weatherlink.com 1.10,2013-04-18 03:43:00,
2013-04-17 19:58:00,26.7,11.0,30.39,North,360,0.0,-999.0,52,-99.99,,,0.00,weatherlink.com 1.10,2013-04-18 03:58:00,
2013-04-17 20:13:00,26.7,11.0,30.40,North,-999,0.0,-999.0,51,-99.99,,,0.00,weatherlink.com 1.10,2013-04-18 04:13:00,
2013-04-17 20:28:00,26.5,11.0,30.40,North,360,0.0,-999.0,52,-99.99,,,0.00,weatherlink.com 1.10,2013-04-18 04:28:00,
2013-04-17 20:43:00,26.1,11.0,30.40,North,-999,0.0,-999.0,52,-99.99,,,0.00,weatherlink.com 1.10,2013-04-18 04:43:00,
2013-04-17 20:58:00,25.4,11.0,30.40,North,-999,0.0,-999.0,54,-99.99,,,0.00,weatherlink.com 1.10,2013-04-18 04:58:00,
2013-04-17 21:13:00,24.7,10.0,30.40,North,-999,0.0,-999.0,54,-99.99,,,0.00,weatherlink.com 1.10,2013-04-18 05:13:00,
2013-04-17 21:28:00,-999.0,-99.9,30.34,North,-999,-999.0,-999.0,-999,-99.99,,,0.00,weatherlink.com 1.10,2013-04-18 05:28:00,
2013-04-17 21:43:00,-999.0,-99.9,30.34,North,-999,-999.0,-999.0,-999,-99.99,,,0.00,weatherlink.com 1.10,2013-04-18 05:43:00,
2013-04-17 21:58:00,-999.0,-99.9,30.34,North,-999,-999.0,-999.0,-999,-99.99,,,0.00,weatherlink.com 1.10,2013-04-18 05:58:00,
2013-04-17 22:13:00,-999.0,-99.9,30.34,North,-999,-999.0,-999.0,-999,-99.99,,,0.00,weatherlink.com 1.10,2013-04-18 06:13:00,
2013-04-17 22:28:00,-999.0,-99.9,30.34,North,-999,-999.0,-999.0,-999,-99.99,,,0.00,weatherlink.com 1.10,2013-04-18 06:28:00,
2013-04-17 22:43:00,-999.0,-99.9,30.34,North,-999,-999.0,-999.0,-999,-99.99,,,0.00,weatherlink.com 1.10,2013-04-18 06:43:00,
2013-04-17 22:58:00,-999.0,-99.9,30.35,North,-999,-999.0,-999.0,-999,-99.99,,,0.00,weatherlink.com 1.10,2013-04-18 06:58:00,
2013-04-17 23:13:00,-999.0,-99.9,30.35,North,-999,-999.0,-999.0,-999,-99.99,,,0.00,weatherlink.com 1.10,2013-04-18 07:13:00,
2013-04-17 23:28:00,-999.0,-99.9,30.35,North,-999,-999.0,-999.0,-999,-99.99,,,0.00,weatherlink.com 1.10,2013-04-18 07:28:00,
2013-04-17 23:43:00,-999.0,-99.9,30.34,North,-999,-999.0,-999.0,-999,-99.99,,,0.00,weatherlink.com 1.10,2013-04-18 07:43:00,
2013-04-17 23:58:00,-999.0,-99.9,30.35,North,-999,-999.0,-999.0,-999,-99.99,,,0.00,weatherlink.com 1.10,2013-04-18 07:58:00,